Content
SEND FEEDBACK

Daily
Averages
Monthly
Summary
United States of America

WARRINGTON, FLORIDA


Home > North America > United States > Florida
Elevation: 30 feet     Latitude: 30 21N     Longitude: 087 19W

WEATHER
 
SELECT A DAY
Number of Records: 182,040;   Date Range: 1/1/95 - 10/29/14
 
SHARE

PRINT THIS DATA

[ ← Previous Day ]
WEATHER ALMANAC - JANUARY 31, 2013
[ Next Day → ]
[ °C ]   °F
Weather ElementAverageHighLow
Temperature47.1 °F59 °F (1:56 pm)34 °F (6:56 am)
Dewpoint31.5 °F39 °F (11:56 pm)25 °F (1:56 pm)
Humidity58.6 %93 % (11:56 pm)27 % (1:56 pm)
Barometer30.24 in30.32 in (10:56 pm)30.14 in (1:56 am)
Wind Speed5 mph12.7 mph (10:56 am)
Wind Gust21.9 mph (1:56 am)
Weather ElementAverage
Visibility10 mi
Wind DirectionSSW (214.3 °)

Weather ElementTotal
Precipitation---
Heating Degree Days18.5 (Base 65)
Averaged from 23 records on January 31, 2013
WEATHER CONDITIONS BREAKOUT
WIND DIRECTION BREAKOUT
WEATHER BY HOUR - JANUARY 31, 2013
[ °C ]   °F
Local TimeTemperatureDewpointHumidityBarometerVisibilityWind DirectionWind SpeedGust SpeedPrecipitationEventsConditions
1:56 AM43.0 °F30.0 °F60 %30.14 in10.0 miNW (320°)11.5 mph21.9 mphClear
2:56 AM41.0 °F30.9 °F67 %30.16 in10.0 miVariable5.8 mphClear
3:56 AM41.0 °F30.0 °F65 %30.16 in10.0 miNW (310°)4.6 mphClear
4:56 AM39.9 °F30.9 °F70 %30.17 in10.0 miNW (310°)4.6 mphClear
5:56 AM36.0 °F30.9 °F82 %30.19 in10.0 miCalmClear
6:56 AM34.0 °F30.9 °F89 %30.21 in10.0 miCalmClear
7:56 AM42.1 °F33.1 °F70 %30.25 in10.0 miCalmClear
8:56 AM46.9 °F32.0 °F56 %30.27 in10.0 miNW (320°)5.8 mphClear
9:56 AM50.0 °F28.0 °F43 %30.27 in10.0 miNNW (340°)11.5 mph17.3 mphClear
10:56 AM52.0 °F27.0 °F38 %30.28 in10.0 miNNW (330°)12.7 mph20.7 mphClear
11:56 AM55.0 °F26.1 °F33 %30.27 in10.0 miNNW (330°)8.1 mph18.4 mphClear
12:56 PM57.9 °F26.1 °F30 %30.24 in10.0 miNNW (330°)10.4 mph19.6 mphClear
1:56 PM59.0 °F25.0 °F27 %30.22 in10.0 miNorth (360°)10.4 mph16.1 mphPartly Cloudy
2:56 PM57.9 °F26.1 °F30 %30.22 in10.0 miNW (320°)5.8 mphPartly Cloudy
3:56 PM57.9 °F27.0 °F31 %30.23 in10.0 miNNW (330°)4.6 mphPartly Cloudy
4:56 PM54.0 °F32.0 °F43 %30.24 in10.0 miCalmScattered Clouds
5:56 PM43.0 °F36.0 °F76 %30.26 in10.0 miCalmScattered Clouds
6:56 PM46.0 °F33.1 °F61 %30.28 in10.0 miWest (270°)5.8 mphPartly Cloudy
7:56 PM46.9 °F37.0 °F68 %30.29 in10.0 miWest (260°)3.5 mphScattered Clouds
8:56 PM48.9 °F37.9 °F66 %30.29 in10.0 miWest (260°)3.5 mphPartly Cloudy
9:56 PM44.1 °F37.9 °F79 %30.29 in10.0 miWest (270°)3.5 mphClear
10:56 PM46.9 °F37.9 °F71 %30.32 in10.0 miWest (270°)3.5 mphClear
11:56 PM41.0 °F39.0 °F93 %30.32 in10.0 miCalmClear
Hourly data recorded from KNPA, located miles away from Warrington, Florida







STORIES FROM OUR PARTNERS